TimeCST,TemperatureF,Dew PointF,Humidity,Sea Level PressureIn,VisibilityMPH,Wind Direction,Wind SpeedMPH,Gust SpeedMPH,PrecipitationIn,Events,Conditions,WindDirDegrees,DateUTC
12:15 AM,51.8,42.8,71,29.77,10.0,South,16.1,26.5,N/A,,Overcast,170,2012-12-15 06:15:00
12:35 AM,51.8,44.6,76,29.78,10.0,South,16.1,24.2,N/A,,Overcast,180,2012-12-15 06:35:00
12:55 AM,50.0,44.6,82,29.79,9.0,South,13.8,21.9,0.07,,Overcast,190,2012-12-15 06:55:00
1:15 AM,50.0,44.6,82,29.76,10.0,South,13.8,20.7,N/A,,Overcast,170,2012-12-15 07:15:00
1:55 AM,50.0,44.6,82,29.75,10.0,South,16.1,-,N/A,,Overcast,170,2012-12-15 07:55:00
2:15 AM,50.0,44.6,82,29.76,10.0,South,9.2,17.3,N/A,,Overcast,190,2012-12-15 08:15:00
2:35 AM,50.0,44.6,82,29.75,10.0,South,10.4,18.4,N/A,,Overcast,190,2012-12-15 08:35:00
2:55 AM,50.0,46.4,87,29.74,10.0,South,12.7,19.6,N/A,,Overcast,190,2012-12-15 08:55:00
3:15 AM,51.8,46.4,82,29.73,10.0,South,16.1,23.0,N/A,,Overcast,180,2012-12-15 09:15:00
3:35 AM,51.8,46.4,82,29.73,10.0,South,16.1,21.9,N/A,,Overcast,190,2012-12-15 09:35:00
4:15 AM,51.8,46.4,82,29.71,10.0,South,17.3,23.0,N/A,,Mostly Cloudy,180,2012-12-15 10:15:00
4:35 AM,51.8,46.4,82,29.70,10.0,South,15.0,20.7,N/A,,Partly Cloudy,190,2012-12-15 10:35:00
4:55 AM,51.8,46.4,82,29.70,10.0,South,16.1,21.9,N/A,,Partly Cloudy,190,2012-12-15 10:55:00
5:16 AM,51.8,46.4,82,29.69,10.0,SSW,13.8,20.7,N/A,,Partly Cloudy,200,2012-12-15 11:16:00
5:35 AM,51.8,46.4,82,29.70,10.0,South,12.7,19.6,N/A,,Clear,190,2012-12-15 11:35:00
5:55 AM,51.8,44.6,76,29.70,10.0,South,13.8,19.6,N/A,,Clear,190,2012-12-15 11:55:00
6:35 AM,51.8,44.6,76,29.71,10.0,SSW,16.1,21.9,N/A,,Clear,200,2012-12-15 12:35:00
6:55 AM,51.8,44.6,76,29.72,10.0,SSW,13.8,20.7,N/A,,Clear,200,2012-12-15 12:55:00
7:35 AM,51.8,42.8,71,29.74,10.0,SSW,12.7,19.6,N/A,,Clear,200,2012-12-15 13:35:00
8:15 AM,51.8,42.8,71,29.74,10.0,SSW,13.8,19.6,N/A,,Clear,210,2012-12-15 14:15:00
8:36 AM,53.6,42.8,67,29.74,10.0,SSW,15.0,23.0,N/A,,Clear,210,2012-12-15 14:36:00
8:55 AM,53.6,41.0,62,29.75,10.0,SW,18.4,24.2,N/A,,Clear,220,2012-12-15 14:55:00
9:15 AM,53.6,41.0,62,29.75,10.0,SW,20.7,26.5,N/A,,Clear,220,2012-12-15 15:15:00
9:55 AM,55.4,39.2,54,29.76,10.0,SW,19.6,27.6,N/A,,Clear,220,2012-12-15 15:55:00
10:15 AM,55.4,39.2,54,29.76,10.0,SW,16.1,27.6,N/A,,Clear,220,2012-12-15 16:15:00
10:35 AM,57.2,39.2,51,29.76,10.0,SW,16.1,26.5,N/A,,Clear,230,2012-12-15 16:35:00
10:56 AM,57.2,39.2,51,29.76,10.0,SW,18.4,23.0,N/A,,Clear,230,2012-12-15 16:56:00
11:15 AM,59.0,39.2,48,29.76,10.0,SW,17.3,23.0,N/A,,Clear,220,2012-12-15 17:15:00
11:35 AM,59.0,39.2,48,29.75,10.0,SW,16.1,23.0,N/A,,Clear,230,2012-12-15 17:35:00
11:56 AM,59.0,37.4,45,29.73,10.0,SW,17.3,-,N/A,,Clear,220,2012-12-15 17:56:00
12:15 PM,59.0,37.4,45,29.73,10.0,SW,16.1,20.7,N/A,,Clear,230,2012-12-15 18:15:00
12:35 PM,60.8,39.2,45,29.73,10.0,SW,16.1,21.9,N/A,,Clear,230,2012-12-15 18:35:00
12:56 PM,60.8,37.4,42,29.72,10.0,SW,13.8,25.3,N/A,,Clear,220,2012-12-15 18:56:00
1:15 PM,60.8,37.4,42,29.71,10.0,SW,12.7,23.0,N/A,,Clear,220,2012-12-15 19:15:00
1:35 PM,60.8,37.4,42,29.70,10.0,SW,17.3,26.5,N/A,,Clear,220,2012-12-15 19:35:00
2:15 PM,60.8,37.4,42,29.70,10.0,SSW,15.0,23.0,N/A,,Clear,210,2012-12-15 20:15:00
2:35 PM,60.8,37.4,42,29.70,10.0,SSW,13.8,21.9,N/A,,Clear,210,2012-12-15 20:35:00
2:56 PM,60.8,37.4,42,29.70,10.0,SSW,15.0,-,N/A,,Clear,210,2012-12-15 20:56:00
3:15 PM,60.8,37.4,42,29.70,10.0,SW,15.0,-,N/A,,Clear,220,2012-12-15 21:15:00
3:35 PM,60.8,37.4,42,29.70,10.0,SW,13.8,17.3,N/A,,Clear,220,2012-12-15 21:35:00
4:15 PM,57.2,35.6,44,29.72,10.0,SW,9.2,-,N/A,,Clear,220,2012-12-15 22:15:00
4:35 PM,57.2,35.6,44,29.72,10.0,SW,10.4,16.1,N/A,,Clear,220,2012-12-15 22:35:00
5:15 PM,53.6,35.6,51,29.72,10.0,SW,6.9,-,N/A,,Clear,220,2012-12-15 23:15:00
5:35 PM,51.8,35.6,54,29.73,10.0,SW,6.9,-,N/A,,Clear,220,2012-12-15 23:35:00
5:55 PM,51.8,33.8,50,29.74,10.0,SW,6.9,-,N/A,,Clear,220,2012-12-15 23:55:00
6:16 PM,51.8,33.8,50,29.75,10.0,SW,5.8,-,N/A,,Clear,230,2012-12-16 00:16:00
6:35 PM,50.0,35.6,58,29.75,10.0,WSW,5.8,-,N/A,,Clear,240,2012-12-16 00:35:00
6:55 PM,50.0,35.6,58,29.76,10.0,SW,6.9,-,N/A,,Clear,230,2012-12-16 00:55:00
7:15 PM,50.0,35.6,58,29.76,10.0,SSW,6.9,-,N/A,,Clear,210,2012-12-16 01:15:00
7:35 PM,51.8,35.6,54,29.76,10.0,SSW,5.8,-,N/A,,Clear,210,2012-12-16 01:35:00
7:55 PM,50.0,33.8,54,29.76,10.0,SSW,4.6,-,N/A,,Clear,210,2012-12-16 01:55:00
8:15 PM,48.2,33.8,58,29.76,10.0,SW,5.8,-,N/A,,Clear,220,2012-12-16 02:15:00
8:35 PM,50.0,33.8,54,29.76,10.0,SSW,6.9,-,N/A,,Clear,200,2012-12-16 02:35:00
8:55 PM,51.8,33.8,50,29.76,10.0,SSW,6.9,-,N/A,,Clear,210,2012-12-16 02:55:00
9:15 PM,50.0,33.8,54,29.76,10.0,SW,8.1,-,N/A,,Clear,220,2012-12-16 03:15:00
9:55 PM,48.2,33.8,58,29.76,10.0,SW,8.1,-,N/A,,Clear,220,2012-12-16 03:55:00
10:15 PM,50.0,33.8,54,29.76,10.0,SSW,6.9,-,N/A,,Clear,210,2012-12-16 04:15:00
10:35 PM,48.2,33.8,58,29.76,10.0,SSW,5.8,-,N/A,,Clear,210,2012-12-16 04:35:00
10:55 PM,46.4,33.8,62,29.76,10.0,SW,5.8,-,N/A,,Clear,220,2012-12-16 04:55:00
11:15 PM,48.2,33.8,58,29.75,10.0,SSW,5.8,-,N/A,,Clear,210,2012-12-16 05:15:00
11:35 PM,46.4,33.8,62,29.76,10.0,SSW,4.6,-,N/A,,Clear,210,2012-12-16 05:35:00